Regional Weather Roundup
Issued by NWS Sterling, VA

Home | Current Version | Previous Version | Text Only | Print | Product List | Glossary On
Versions: 1 2 3 4 5 6 7 8 9 10 11 12 13 14 15 16 17 18 19 20 21 22 23 24 25 26 27 28 29 30 31 32 33 34 35 36 37 38 39 40 41 42 43 44 45 46 47 48 49 50
000
ASUS41 KLWX 211610
RWRLWX

REGIONAL WEATHER ROUNDUP
NATIONAL WEATHER SERVICE BALTIMORE MD/WASHINGTON DC
1200 PM EDT THU AUG 21 2014

Note: "FAIR" indicates few or no clouds below 12,000 feet
with no significant weather and/or obstructions to visibility.
 TC=TEMPERATURE CELSIUS

 * =Non NWS site. Station does not report precipitation (e.g. rain,
    snow, etc.), thunder, or fog.

DCZ001-MDZ009-015-VAZ040>042-051-053>054-211700-
WASHINGTON METRO
  /KDAA//-FT BELVOIR

CITY           SKY/WX    TMP DP  RH WIND       PRES   REMARKS
WASHINGTON NAT PTSUNNY   83  70  64 S6        30.04F
DULLES         PTSUNNY   79  70  74 CALM      30.05F
ANDREWS AFB    SUNNY     83  70  65 W6        30.05F
QUANTICO       PTSUNNY   79  72  79 CALM      30.05F
COLLEGE PARK*  MOSUNNY   82  70  65 W6        30.04S
LEESBURG*      SUNNY     82  73  74 CALM      30.06F HAZE
MANASSAS*      SUNNY     77  75  94 S6        30.06F
GAITHERSBURG*  SUNNY     81  70  69 W6        30.08F

$$

MDZ006>007-011-014-211700-
BALTIMORE METRO

CITY           SKY/WX    TMP DP  RH WIND       PRES   REMARKS
BWI AIRPORT    PTSUNNY   83  71  67 VRB3      30.03F
MD SCIENCE CTR   N/A     83  70  64 MISG      30.03F
MARTIN STATE   PTSUNNY   81  75  83 E7        30.05F
ANNAPOLIS      MOSUNNY   78  72  81 SE9       30.03F
FORT MEADE*    SUNNY     79  70  73 SW3       30.06F

$$

MDZ012-015-019>023-211700-
MARYLAND EASTERN SHORE

CITY           SKY/WX    TMP DP  RH WIND       PRES   REMARKS
OCEAN CITY     MOSUNNY   78  71  79 SE10      30.05F
SALISBURY      PTSUNNY   85  72  65 E3        30.03F HX  91
BAY BRIDGE AP*   N/A     81  70  69 CALM      30.04F
CAMBRIDGE*     MOSUNNY   84  70  61 CALM      30.03S
EASTON*        PTSUNNY   84  73  70 CALM      30.07F HX  91

$$

MDZ017>025-211700-
SOUTHERN MARYLAND

CITY           SKY/WX    TMP DP  RH WIND       PRES   REMARKS
PATUXENT RIVER MOSUNNY   82  72  71 E6        30.03S
ST INIGOES     SUNNY     83  71  67 W5        30.03F
LEONARDTOWN*   MOSUNNY   82  70  65 SW3       30.05F

$$

MDZ003>005-211700-
NORTH CENTRAL MARYLAND

CITY           SKY/WX    TMP DP  RH WIND       PRES   REMARKS
FREDERICK*     SUNNY     84  73  70 SW7       30.07F HX  91
HAGERSTOWN APT SUNNY     78  70  76 CALM      30.06F
WESTMINSTER*   MOSUNNY   79  72  78 W3        30.06S

$$

MDZ501>502-211700-
WESTERN MARYLAND

CITY           SKY/WX    TMP DP  RH WIND       PRES   REMARKS
OAKLAND*       CLOUDY    68 N/A N/A W5        30.18S
CUMBERLAND*    MOSUNNY   86  68  54 CALM      30.08F

$$

VAZ025>031-211700-
SHENANDOAH VALLEY

CITY           SKY/WX    TMP DP  RH WIND       PRES   REMARKS
WINCHESTER*    MOSUNNY   82  68  61 NW3       30.05F
STAUNTON*      MOSUNNY   83  63  50 CALM      30.11S

$$

WVZ021-048>050-054>055-211700-
EASTERN WEST VIRGINIA PANHANDLE

CITY           SKY/WX    TMP DP  RH WIND       PRES   REMARKS
MARTINSBURG    SUNNY     82  68  62 CALM      30.06F
PETERSBURG*    NOT AVBL

$$

VAZ036>039-050-211700-
CENTRAL FOOTHILLS

CITY           SKY/WX    TMP DP  RH WIND       PRES   REMARKS
CHARLOTTESVILL SUNNY     82  71  69 CALM      30.06F
ORANGE*        SUNNY     82  70  65 CALM      30.06F

$$

VAZ055>057-211700-
NORTH AND CENTRAL PIEDMONT

CITY           SKY/WX    TMP DP  RH WIND       PRES   REMARKS
FREDERICKSBRG* SUNNY     84  73  71 CALM      30.04F HX  90
STAFFORD*      SUNNY     80  78  92 CALM      30.09F

$$

NCZ024-NYZ072-PAZ021-071-VAZ022-071-211700-
OTHER REGIONAL OBSERVATIONS

CITY           SKY/WX    TMP DP  RH WIND       PRES   REMARKS
NEW YORK CITY  MOSUNNY   80  61  52 VRB6      30.07F
PHILADELPHIA   PTSUNNY   80  66  62 SW3       30.05F
PITTSBURGH     PTSUNNY   74  67  78 SW8       30.07S
ROANOKE        MOSUNNY   82  67  60 S7        30.13F
RICHMOND       MOSUNNY   88  71  57 W5        30.04F HX  94
RALEIGH        MOSUNNY   87  72  60 NW3       30.08F HX  93

$$

ANZ530>537-211700-
MARINE OBSERVATIONS

STATION/POSITION TIME  TEMP    WIND        PRES
                       AIR SEA DIR/SP/G
                 (UTC) (F)     (DEG/KT/KT) (MB)
THOMAS PT LIGHT  1600   77 78  120/  4/  5 1017.8F
BALT KEY BRIDGE  1600   77      80/  3/  4 1017.0F
COVE POINT       1600   77     100/  4/  4 1017.1F
LEWISETTA        1600   78 78   60/  4/  6 1017.0S
SOLOMONS ISLAND  1600      80                N/A
PINEY POINT      1600          330/  5/  6   N/A

$$



USA.gov is the U.S. government's official web portal to all federal, state and local government web resources and services.